SHLBYV-WX Weather Reports


Display with metric or nautical units.
time (UTC)temp
F
wind
direction
speed
MPH
gust
MPH
rain 1hr
in
rain 24hr
in
rain mn
in
humidity
%
barometer
mb
20260505193106 54 277 13.0 0.0 0.00 0.00 0.00 34 979.5
20260505191552 54 275 13.0 0.0 0.00 0.00 0.00 34 979.5
20260505190120 54 271 13.0 0.0 0.00 0.00 0.00 34 979.5
20260505184552 54 268 13.0 0.0 0.00 0.00 0.00 36 980.3
20260505183115 54 274 14.0 0.0 0.00 0.00 0.00 37 979.4
20260505181552 55 276 13.0 0.0 0.00 0.00 0.00 37 979.4
20260505180127 55 277 13.0 0.0 0.00 0.00 0.00 37 979.4
20260505174552 55 273 13.0 0.0 0.00 0.00 0.00 37 978.7
20260505173108 54 277 13.0 0.0 0.00 0.00 0.00 37 977.8
20260505171553 54 282 12.0 0.0 0.00 0.00 0.00 37 977.8
20260505170125 54 284 12.0 0.0 0.00 0.00 0.00 37 977.8
20260505164553 53 287 12.0 0.0 0.00 0.00 0.00 42 979.0
20260505163111 51 286 13.0 0.0 0.00 0.00 0.00 43 977.0
20260505161553 51 284 12.0 0.0 0.00 0.00 0.00 43 977.0
20260505160126 51 273 11.0 0.0 0.00 0.00 0.00 43 977.0
20260505153114 50 274 12.0 0.0 0.00 0.00 0.00 44 977.8
20260505151552 50 280 12.0 0.0 0.00 0.00 0.00 44 977.8
20260505150135 50 285 12.0 0.0 0.00 0.00 0.00 44 977.8
20260505140135 50 285 13.0 0.0 0.00 0.00 0.00 41 977.6
20260505130126 50 300 12.0 0.0 0.00 0.00 0.00 60 977.5
20260505124551 50 303 12.0 0.0 0.00 0.00 0.00 71 976.8
20260505123111 49 308 7.0 0.0 0.00 0.00 0.00 74 975.1
20260505121552 49 302 9.0 0.0 0.00 0.00 0.00 74 975.1
20260505120140 48 301 9.0 0.0 0.00 0.00 0.00 74 975.1
20260505114552 48 278 10.0 0.0 0.00 0.00 0.00 70 975.3
20260505113109 48 274 10.0 0.0 0.00 0.00 0.00 70 973.8
20260505111552 48 281 7.0 0.0 0.00 0.00 0.00 70 973.8
20260505110131 48 277 9.0 0.0 0.00 0.00 0.00 70 973.8
20260505101551 50 265 10.0 0.0 0.00 0.00 0.00 57 972.5
20260505100129 50 271 11.0 0.0 0.00 0.00 0.00 57 972.5
20260505094551 50 274 10.0 0.0 0.00 0.00 0.00 61 972.8
20260505093114 50 269 8.0 0.0 0.00 0.00 0.00 59 972.6
20260505091552 51 264 9.0 0.0 0.00 0.00 0.00 59 972.6
20260505090133 51 267 11.0 0.0 0.00 0.00 0.00 59 972.6
20260505084549 51 277 11.0 0.0 0.00 0.00 0.00 74 972.7
20260505083110 52 272 10.0 0.0 0.00 0.00 0.00 78 971.9
20260505081551 52 263 9.0 0.0 0.00 0.00 0.00 78 971.9
20260505080123 52 260 7.0 0.0 0.00 0.00 0.00 64 971.9
20260505074552 53 258 9.0 0.0 0.00 0.00 0.00 75 971.5
20260505073112 53 255 9.0 0.0 0.00 0.00 0.00 75 971.5
20260505071552 54 251 10.0 0.0 0.00 0.00 0.00 75 971.5
20260505070126 55 242 9.0 0.0 0.00 0.00 0.00 75 971.5
20260505064551 55 252 11.0 0.0 0.00 0.00 0.00 77 971.8
20260505063108 55 245 11.0 0.0 0.00 0.00 0.00 77 971.3
20260505061553 56 242 12.0 0.0 0.00 0.00 0.00 77 971.3
20260505060139 57 242 12.0 0.0 0.00 0.00 0.00 77 971.3
20260505054552 57 235 12.0 0.0 0.00 0.00 0.00 76 972.3
20260505053115 58 251 10.0 0.0 0.00 0.00 0.00 68 971.0
20260505051551 59 234 11.0 0.0 0.00 0.00 0.00 68 971.0
20260505050124 59 238 11.0 0.0 0.00 0.00 0.00 68 971.0
20260505041551 60 202 13.0 0.0 0.00 0.00 0.00 70 970.9
20260505040129 60 193 15.0 0.0 0.00 0.00 0.00 70 970.9
20260505034548 61 217 17.0 0.0 0.00 0.00 0.00 63 970.7
20260505033111 60 199 13.0 0.0 0.00 0.00 0.00 64 970.7
20260505031551 61 191 15.0 0.0 0.00 0.00 0.00 64 970.7
20260505030125 61 198 16.0 0.0 0.00 0.00 0.00 64 970.7
20260505024552 61 204 14.0 0.0 0.00 0.00 0.00 62 971.1
20260505023111 61 213 16.0 0.0 0.00 0.00 0.00 56 971.1
20260505021550 62 214 15.0 0.0 0.00 0.00 0.00 56 971.1
20260505020125 62 214 19.0 0.0 0.00 0.00 0.00 56 971.1
20260505014551 63 211 18.0 0.0 0.00 0.00 0.00 70 970.4
20260505013109 63 214 17.0 0.0 0.00 0.00 0.00 70 970.4
20260505011552 63 211 17.0 0.0 0.00 0.00 0.00 70 970.4
20260505010122 64 216 16.0 0.0 0.00 0.00 0.00 70 970.4
20260505004551 63 203 16.0 0.0 0.00 0.00 0.00 44 970.5
20260505003107 66 206 14.0 0.0 0.00 0.00 0.00 47 971.1
20260505001550 66 196 11.0 0.0 0.00 0.00 0.00 47 971.1
20260505000132 67 198 8.0 0.0 0.00 0.00 0.00 47 971.1
20260504234551 68 212 7.0 0.0 0.00 0.00 0.00 40 971.2
20260504233110 69 231 8.0 0.0 0.00 0.00 0.00 37 971.1
20260504231551 69 241 8.0 0.0 0.00 0.00 0.00 37 971.0
20260504230118 70 250 10.0 0.0 0.00 0.00 0.00 37 971.0
20260504224551 70 254 12.0 0.0 0.00 0.00 0.00 37 971.0
20260504223112 71 252 15.0 0.0 0.00 0.00 0.00 39 971.1
20260504221551 71 253 15.0 0.0 0.00 0.00 0.00 39 971.1
20260504220128 72 250 16.0 0.0 0.00 0.00 0.00 39 971.1
20260504214550 72 243 18.0 0.0 0.00 0.00 0.00 38 972.2
20260504213112 72 235 18.0 0.0 0.00 0.00 0.00 38 972.2
20260504211550 72 245 16.0 0.0 0.00 0.00 0.00 37 971.1
20260504210124 72 243 19.0 0.0 0.00 0.00 0.00 37 971.2
20260504204555 72 246 19.0 0.0 0.00 0.00 0.00 39 971.8
20260504203106 72 239 21.0 0.0 0.00 0.00 0.00 39 971.8
20260504201557 72 237 19.0 0.0 0.00 0.00 0.00 39 971.8
20260504200122 72 233 19.0 0.0 0.00 0.00 0.00 35 971.2
20260504194557 72 235 20.0 0.0 0.00 0.00 0.00 34 972.2